• Join FlightAware (Why Join?)
  • Login
  • US Flag 
01:11PM EDT


 

Airport Tracker/Info


-or-


 

Live Flight TrackerFlight Track Log ✈ OPT332 ✈ 16-Sep-2013 ✈ KAAO - KIXD

Flight Track Log - Related Links

Times and Time Zones

All times are in EDT time to prevent confusion due to time zone crossing. See the OPT332 flight status page for this flight to view local times or setup timezone preferences in your user account.

Time Position Orientation Groundspeed Altitude Reporting Facility
EDT Latitude Longitude Course Direction KTS MPH feet Rate Location/Type
07:33PM 37.7586 -97.2189 49° Northeast 167 192 2,400  Level Kansas City Center
07:34PM 37.7953 -97.1656 49° Northeast 247 284 5,500 3,120 Climbing Kansas City Center
07:34PM 37.7983 -97.1628 36° Northeast 231 266 5,600 3,900 Climbing Kansas City Center
07:35PM 37.8356 -97.0817 60° Northeast 262 302 9,800 3,780 Climbing Kansas City Center
07:36PM 37.8764 -96.9942 59° Northeast 285 328 13,500 3,240 Climbing Kansas City Center
07:37PM 37.9203 -96.9011 59° Northeast 304 350 16,700 1,680 Climbing Kansas City Center
07:38PM 37.9672 -96.7994 60° Northeast 330 380 17,000 120 Climbing Kansas City Center
07:39PM 38.0183 -96.6711 63° Northeast 339 390 17,000  Level Kansas City Center
07:40PM 38.0617 -96.5681 62° Northeast 334 384 17,000  Level Kansas City Center
07:41PM 38.1056 -96.4617 62° Northeast 339 390 17,000  Level Kansas City Center
07:42PM 38.1503 -96.3536 62° Northeast 344 396 17,000  Level Kansas City Center
07:44PM 38.2000 -96.2344 62° Northeast 348 400 17,000  Level Kansas City Center
07:45PM 38.2422 -96.1300 63° Northeast 348 400 17,000  Level Kansas City Center
07:46PM 38.2917 -96.0081 63° Northeast 348 400 17,000  Level Kansas City Center
07:47PM 38.3339 -95.9064 62° Northeast 342 394 17,000  Level Kansas City Center
07:48PM 38.3819 -95.7875 63° Northeast 339 390 17,000 -480 Level Kansas City Center
07:49PM 38.4231 -95.6864 63° Northeast 336 387 16,100 -1,200 Descending Kansas City Center
07:50PM 38.4675 -95.5739 63° Northeast 319 367 14,600 -1,680 Descending Kansas City Center
07:51PM 38.5061 -95.4778 63° Northeast 320 368 12,800 -1,980 Descending Kansas City Center
07:52PM 38.5500 -95.3661 63° Northeast 315 362 10,500 -2,040 Descending Kansas City Center
07:53PM 38.5844 -95.2800 63° Northeast 290 334 8,600 -2,280 Descending Kansas City Center
07:54PM 38.6228 -95.1844 63° Northeast 273 314 5,800 -2,220 Descending Kansas City Center
07:55PM 38.6503 -95.1039 66° East 263 303 4,100 -1,200 Descending Kansas City Center
07:56PM 38.6372 -95.0139 100° East 236 272 3,400 -540 Descending Kansas City Center
07:57PM 38.6356 -94.9467 92° East 200 230 3,100 -180 Descending Kansas City Center
07:58PM 38.6667 -94.8931 53° Northeast 194 223 3,100  Level Kansas City Center
07:59PM 38.7139 -94.8925 North 179 206 3,100 -240 Level Kansas City Center
08:00PM 38.7561 -94.8925 360° North 134 154 2,600 -840 Descending Kansas City Center
08:01PM 38.7917 -94.8922 360° North 134 154 1,400 -720 Descending Kansas City Center
08:02PM 38.8233 -94.8919 360° North 130 150 1,200 -240 Descending Kansas City Center